Zurück zum Katalog

USA 105

AktivMilitärGEO
NORAD 23223·PAYLOAD·🇺🇸 United States

Gestartet Aug 27, 1994 von Cape Canaveral Space Force Station

Loading…

TLE

AktuellSource: Mike McCants

Epoche: Sep 14, 2026, 22:23 UTC

1 23223U 94054A   26257.93268079  .00000000  00000-0  00000-0 0    03
2 23223  13.4790   9.7388 0029773  88.1885 272.1714  1.00270000  5299

Verfolge USA 105 in Echtzeit mit AllMySat

Download on the App Store